When you browse on this site, cookies collect data to enhance your experience and personalize the content and advertising you see.
Visit our Privacy Policy to learn more. By continuing to use the site, you agree to this use of cookies and data.

Stündliche Wetter Kreta

Heute, 11 Juli, Samstag

Zeit Temperatur Niederschläge Wind Luftdruck Luftfeuchtigkeit
00:00 +19°C° 0 mm 4 m/S 706 mmHg 75%
01:00 +19°C° 0 mm 4 m/S 706 mmHg 76%
02:00 +19°C° 0 mm 4 m/S 706 mmHg 76%
03:00 +18°C° 0 mm 4 m/S 706 mmHg 78%
04:00 +18°C° 0 mm 4 m/S 706 mmHg 81%
05:00 +18°C° 0 mm 4 m/S 706 mmHg 83%
06:00 +20°C° 0 mm 4 m/S 706 mmHg 77%
07:00 +21°C° 0 mm 4 m/S 706 mmHg 72%
08:00 +22°C° 0 mm 4 m/S 706 mmHg 66%
09:00 +25°C° 0 mm 4 m/S 707 mmHg 61%
10:00 +26°C° 0 mm 4 m/S 707 mmHg 55%
11:00 +27°C° 0 mm 4 m/S 708 mmHg 49%
12:00 +27°C° 0 mm 5 m/S 708 mmHg 48%
13:00 +28°C° 0 mm 5 m/S 707 mmHg 47%
14:00 +28°C° 0 mm 5 m/S 707 mmHg 47%
15:00 +27°C° 0 mm 4 m/S 707 mmHg 48%
16:00 +27°C° 0 mm 4 m/S 707 mmHg 49%
17:00 +26°C° 0 mm 4 m/S 707 mmHg 51%
18:00 +25°C° 0 mm 4 m/S 707 mmHg 56%
19:00 +22°C° 0 mm 4 m/S 706 mmHg 61%
20:00 +21°C° 0 mm 3 m/S 706 mmHg 67%
21:00 +21°C° 0 mm 3 m/S 706 mmHg 65%
22:00 +21°C° 0 mm 4 m/S 706 mmHg 63%
23:00 +20°C° 0 mm 4 m/S 706 mmHg 61%

Morgen, 12 Juli, Sonntag

Zeit Temperatur Niederschläge Wind Luftdruck Luftfeuchtigkeit
00:00 +20°C° 0 mm 4 m/S 706 mmHg 62%
01:00 +20°C° 0 mm 4 m/S 705 mmHg 63%
02:00 +20°C° 0 mm 4 m/S 705 mmHg 63%
03:00 +19°C° 0 mm 4 m/S 705 mmHg 66%
04:00 +19°C° 0 mm 4 m/S 705 mmHg 69%
05:00 +19°C° 0 mm 4 m/S 704 mmHg 71%
06:00 +20°C° 0 mm 4 m/S 705 mmHg 65%
07:00 +22°C° 0 mm 4 m/S 705 mmHg 59%
08:00 +25°C° 0 mm 4 m/S 705 mmHg 52%
09:00 +26°C° 0 mm 5 m/S 706 mmHg 50%
10:00 +27°C° 0 mm 5 m/S 706 mmHg 48%
11:00 +28°C° 0 mm 5 m/S 706 mmHg 46%
12:00 +28°C° 0 mm 5 m/S 706 mmHg 44%
13:00 +28°C° 0 mm 6 m/S 706 mmHg 43%
14:00 +28°C° 0 mm 6 m/S 706 mmHg 42%
15:00 +28°C° 0 mm 6 m/S 706 mmHg 41%
16:00 +28°C° 0 mm 6 m/S 705 mmHg 40%
17:00 +27°C° 0 mm 5 m/S 705 mmHg 38%
18:00 +26°C° 0 mm 5 m/S 705 mmHg 41%
19:00 +25°C° 0 mm 5 m/S 705 mmHg 44%
20:00 +22°C° 0 mm 4 m/S 705 mmHg 46%
21:00 +22°C° 0 mm 4 m/S 705 mmHg 48%
22:00 +22°C° 0 mm 5 m/S 705 mmHg 49%
23:00 +21°C° 0 mm 5 m/S 705 mmHg 50%

übermorgen, 13 Juli, Montag

Zeit Temperatur Niederschläge Wind Luftdruck Luftfeuchtigkeit
00:00 +21°C° 0 mm 5 m/S 704 mmHg 54%
01:00 +21°C° 0 mm 5 m/S 704 mmHg 58%
02:00 +21°C° 0 mm 6 m/S 704 mmHg 62%
03:00 +21°C° 0 mm 6 m/S 703 mmHg 64%
04:00 +21°C° 0 mm 6 m/S 703 mmHg 66%
05:00 +21°C° 0 mm 6 m/S 703 mmHg 68%
06:00 +22°C° 0 mm 6 m/S 703 mmHg 63%
07:00 +23°C° 0 mm 7 m/S 703 mmHg 58%
08:00 +24°C° 0 mm 7 m/S 703 mmHg 54%
09:00 +26°C° 0 mm 7 m/S 704 mmHg 51%
10:00 +27°C° 0 mm 8 m/S 704 mmHg 47%
11:00 +28°C° 0 mm 8 m/S 704 mmHg 44%
12:00 +28°C° 0 mm 8 m/S 704 mmHg 43%
13:00 +28°C° 0 mm 9 m/S 704 mmHg 42%
14:00 +28°C° 0 mm 9 m/S 704 mmHg 40%
15:00 +28°C° 0 mm 9 m/S 704 mmHg 43%
16:00 +27°C° 0 mm 9 m/S 703 mmHg 46%
17:00 +26°C° 0 mm 9 m/S 703 mmHg 50%
18:00 +24°C° 0 mm 8 m/S 703 mmHg 56%
19:00 +23°C° 0 mm 8 m/S 703 mmHg 61%
20:00 +22°C° 0 mm 7 m/S 703 mmHg 67%
21:00 +21°C° 0 mm 7 m/S 703 mmHg 69%
22:00 +21°C° 0 mm 7 m/S 704 mmHg 71%
23:00 +21°C° 0 mm 6 m/S 704 mmHg 73%

14 Juli, Dienstag

Zeit Temperatur Niederschläge Wind Luftdruck Luftfeuchtigkeit
00:00 +21°C° 0 mm 7 m/S 704 mmHg 75%
01:00 +21°C° 0 mm 7 m/S 703 mmHg 77%
02:00 +21°C° 0 mm 7 m/S 703 mmHg 79%
03:00 +20°C° 0 mm 7 m/S 703 mmHg 79%
04:00 +20°C° 0 mm 8 m/S 703 mmHg 79%
05:00 +20°C° 0 mm 8 m/S 703 mmHg 80%
06:00 +21°C° 0 mm 8 m/S 704 mmHg 72%
07:00 +22°C° 0 mm 8 m/S 704 mmHg 65%
08:00 +22°C° 0 mm 8 m/S 705 mmHg 57%
09:00 +23°C° 0 mm 8 m/S 705 mmHg 54%
10:00 +24°C° 0 mm 9 m/S 705 mmHg 50%
11:00 +26°C° 0 mm 9 m/S 706 mmHg 47%
12:00 +26°C° 0 mm 9 m/S 706 mmHg 48%
13:00 +26°C° 0 mm 9 m/S 706 mmHg 49%
14:00 +26°C° 0 mm 9 m/S 706 mmHg 50%
15:00 +24°C° 0 mm 8 m/S 706 mmHg 53%
16:00 +23°C° 0 mm 8 m/S 705 mmHg 56%
17:00 +23°C° 0 mm 8 m/S 705 mmHg 58%
18:00 +22°C° 0 mm 7 m/S 705 mmHg 64%
19:00 +20°C° 0 mm 7 m/S 705 mmHg 69%
20:00 +19°C° 0 mm 6 m/S 705 mmHg 75%
21:00 +19°C° 0 mm 6 m/S 705 mmHg 75%
22:00 +19°C° 0 mm 6 m/S 706 mmHg 76%
23:00 +19°C° 0 mm 6 m/S 706 mmHg 77%

15 Juli, Mittwoch

Zeit Temperatur Niederschläge Wind Luftdruck Luftfeuchtigkeit
00:00 +17°C° 0 mm 6 m/S 706 mmHg 76%
01:00 +17°C° 0 mm 6 m/S 706 mmHg 76%
02:00 +17°C° 0 mm 6 m/S 706 mmHg 75%
03:00 +17°C° 0 mm 6 m/S 706 mmHg 74%
04:00 +17°C° 0 mm 7 m/S 706 mmHg 74%
05:00 +17°C° 0 mm 7 m/S 705 mmHg 74%
06:00 +18°C° 0 mm 7 m/S 706 mmHg 68%
07:00 +20°C° 0 mm 7 m/S 706 mmHg 63%
08:00 +21°C° 0 mm 7 m/S 706 mmHg 58%
09:00 +22°C° 0 mm 7 m/S 707 mmHg 53%
10:00 +23°C° 0 mm 7 m/S 707 mmHg 48%
11:00 +24°C° 0 mm 7 m/S 707 mmHg 43%
12:00 +24°C° 0 mm 7 m/S 707 mmHg 43%
13:00 +26°C° 0 mm 7 m/S 707 mmHg 43%
14:00 +26°C° 0 mm 7 m/S 707 mmHg 42%
15:00 +24°C° 0 mm 7 m/S 707 mmHg 43%
16:00 +24°C° 0 mm 7 m/S 707 mmHg 43%
17:00 +24°C° 0 mm 7 m/S 707 mmHg 44%
18:00 +22°C° 0 mm 6 m/S 707 mmHg 49%
19:00 +21°C° 0 mm 6 m/S 707 mmHg 54%
20:00 +20°C° 0 mm 5 m/S 707 mmHg 59%
21:00 +19°C° 0 mm 5 m/S 707 mmHg 59%
22:00 +19°C° 0 mm 5 m/S 707 mmHg 59%
23:00 +19°C° 0 mm 4 m/S 707 mmHg 60%

16 Juli, Donnerstag

Zeit Temperatur Niederschläge Wind Luftdruck Luftfeuchtigkeit
00:00 +19°C° 0 mm 5 m/S 707 mmHg 60%
01:00 +19°C° 0 mm 5 m/S 706 mmHg 60%
02:00 +19°C° 0 mm 6 m/S 706 mmHg 60%
03:00 +17°C° 0 mm 6 m/S 706 mmHg 61%
04:00 +17°C° 0 mm 6 m/S 706 mmHg 62%
05:00 +17°C° 0 mm 6 m/S 705 mmHg 64%
06:00 +20°C° 0 mm 6 m/S 705 mmHg 59%
07:00 +21°C° 0 mm 7 m/S 706 mmHg 54%
08:00 +23°C° 0 mm 7 m/S 706 mmHg 49%
09:00 +24°C° 0 mm 7 m/S 706 mmHg 46%
10:00 +26°C° 0 mm 7 m/S 706 mmHg 43%
11:00 +27°C° 0 mm 7 m/S 706 mmHg 40%
12:00 +27°C° 0 mm 7 m/S 706 mmHg 39%
13:00 +27°C° 0 mm 8 m/S 706 mmHg 39%
14:00 +27°C° 0 mm 8 m/S 706 mmHg 38%
15:00 +27°C° 0 mm 8 m/S 706 mmHg 39%
16:00 +26°C° 0 mm 8 m/S 706 mmHg 40%
17:00 +26°C° 0 mm 8 m/S 706 mmHg 42%
18:00 +24°C° 0 mm 7 m/S 705 mmHg 47%
19:00 +22°C° 0 mm 6 m/S 705 mmHg 52%
20:00 +21°C° 0 mm 6 m/S 705 mmHg 58%
21:00 +21°C° 0 mm 6 m/S 705 mmHg 60%
22:00 +21°C° 0 mm 6 m/S 705 mmHg 62%
23:00 +20°C° 0 mm 5 m/S 705 mmHg 63%
Mehr zeigen